GFSSGP_700_spd_021.txt.gz
Wind_Speed
13 10 8 5 2 8 9 11 12 12 12 11 11 5 9 14 12 20 28 27 28 28 29 29 27 27 26 25 24 23 21 20 21 20 18 16 15 12 9 8 9 7 7 8 7 7 9 9 9
12 11 9 2 4 7 13 11 12 14 13 12 12 9 10 15 15 34 32 28 28 27 27 26 24 25 24 23 22 21 20 20 20 19 18 16 13 10 9 8 8 7 7 7 7 8 9 8 9
15 11 5 7 12 3 13 10 11 12 10 5 4 8 5 23 22 27 29 29 28 25 25 24 22 23 23 22 20 20 19 19 19 18 16 14 12 11 9 7 7 5 6 6 7 8 9 9 9
8 4 5 4 9 9 11 12 10 9 7 7 10 18 24 20 16 23 27 25 25 24 22 22 20 21 21 20 19 19 19 19 19 17 15 13 11 9 7 7 6 6 6 6 6 8 9 9 9
2 2 5 7 8 9 10 10 8 11 8 11 14 23 22 16 20 23 23 24 23 22 20 20 20 21 21 20 20 20 19 19 18 16 14 12 10 7 6 5 5 6 6 5 6 7 8 9 10
5 3 5 11 8 7 8 9 7 7 9 11 16 21 15 19 21 19 21 20 16 21 19 19 20 21 21 20 20 19 18 17 15 13 11 10 7 5 5 4 5 5 5 6 7 7 7 7 8
6 9 7 10 7 8 7 8 5 7 9 12 17 14 19 20 19 20 15 17 17 19 19 19 19 19 19 19 18 17 16 14 12 10 8 7 6 5 5 4 4 6 6 7 7 6 6 7 8
9 8 7 5 14 7 6 7 7 9 10 14 13 11 22 22 21 20 19 17 16 18 18 17 18 18 18 17 15 14 12 10 8 7 5 4 4 3 2 3 4 5 6 8 8 7 6 6 6
8 6 11 6 6 10 8 6 8 9 13 12 11 8 19 19 21 20 20 21 17 17 17 17 16 16 16 15 13 11 10 9 7 6 4 2 3 4 0 2 3 4 6 7 8 7 5 6 5
8 7 1 6 4 10 8 6 8 9 11 12 11 16 17 17 19 21 19 16 19 19 19 14 15 16 15 14 12 11 10 9 7 5 4 4 3 2 2 3 4 5 6 6 6 7 8 9 7
10 7 4 3 3 7 7 7 6 8 8 12 14 18 15 16 17 18 18 17 16 16 16 14 13 15 14 12 12 11 10 8 7 6 6 5 5 5 5 5 7 9 7 5 10 7 9 9 9
12 6 4 2 3 8 8 9 8 8 7 12 14 17 13 16 16 19 18 18 17 16 17 17 14 13 11 12 12 8 7 8 7 7 7 7 7 7 6 6 8 9 9 10 11 9 12 11 14
14 9 6 6 6 8 10 10 9 9 10 13 15 17 15 16 18 19 18 17 16 14 15 14 12 12 11 9 10 10 11 9 8 9 8 9 9 8 8 8 9 9 10 11 13 9 13 15 14
12 13 11 8 9 12 13 12 10 12 11 14 15 14 17 17 19 20 20 19 16 14 14 13 12 12 11 11 9 9 10 12 10 10 10 9 9 10 9 9 11 11 13 11 10 12 14 16 18
16 13 10 10 12 13 14 13 14 14 13 14 15 16 19 20 20 20 20 17 15 14 14 13 13 13 12 12 11 10 7 9 9 9 13 10 9 10 11 11 11 12 13 12 13 15 16 19 17
21 17 19 13 15 13 17 18 17 16 16 16 15 18 21 20 21 20 17 16 16 16 17 15 15 14 14 12 11 12 10 11 12 11 15 14 13 13 13 12 13 13 13 14 15 15 15 17 17
23 24 20 16 18 14 16 15 16 16 16 19 18 18 21 21 21 19 18 18 19 19 17 18 16 15 14 13 12 12 12 14 15 14 14 14 14 14 14 14 13 14 15 15 16 14 19 20 18
28 26 24 21 21 17 16 6 13 14 16 18 21 21 22 23 21 20 20 21 21 20 20 19 18 18 15 14 13 13 14 15 16 13 18 14 14 14 15 16 14 15 16 16 16 17 21 19 17
27 25 20 21 20 22 19 15 14 13 17 17 20 23 24 24 22 22 22 23 23 23 22 20 20 19 17 15 16 16 18 18 17 15 15 15 15 15 16 17 17 15 15 17 18 17 18 15 16
31 28 23 18 20 24 21 22 20 16 16 18 20 22 24 25 25 26 26 25 24 22 21 19 18 19 18 17 17 17 15 12 13 15 18 15 14 14 15 14 14 11 13 11 13 12 13 12 12
35 32 24 23 24 20 21 24 23 20 18 19 20 22 24 27 27 29 29 28 26 26 23 21 19 19 19 18 19 18 17 14 14 14 9 11 11 10 9 6 5 2 5 8 8 8 8 7 9
36 31 27 25 23 24 26 26 30 25 25 23 22 22 24 27 29 29 29 30 30 28 26 23 20 20 20 20 20 16 14 12 9 6 7 4 3 5 6 5 3 2 4 8 11 11 10 8 5
37 32 30 27 28 27 29 30 23 25 28 26 23 24 24 25 27 29 30 30 28 29 28 25 23 23 22 22 18 17 15 11 11 11 10 10 8 5 3 2 1 3 7 9 12 13 12 10 7
34 32 32 32 31 24 33 31 32 25 26 22 23 22 24 25 26 27 28 29 29 28 28 27 26 25 24 21 19 17 15 14 17 15 12 10 8 8 3 1 3 5 7 10 11 13 13 12 10
37 36 30 26 26 21 36 32 34 25 22 22 23 23 24 25 26 28 29 29 30 27 27 28 27 27 24 22 19 17 16 16 15 14 13 12 9 7 5 5 7 7 8 11 13 13 13 14 14
43 45 36 25 17 21 36 36 39 29 19 16 19 18 21 26 27 27 23 25 26 24 26 26 27 26 25 22 20 18 19 18 17 14 13 13 11 12 9 9 9 11 12 12 14 15 15 14 14
43 50 44 40 36 30 36 33 32 20 28 28 22 21 22 23 27 26 24 24 25 24 22 24 28 25 25 22 22 20 17 18 17 16 16 15 17 18 14 11 12 14 15 15 17 18 18 18 17
47 43 45 46 28 27 34 33 31 30 26 25 27 24 23 23 25 28 32 28 25 26 24 24 25 25 26 25 24 23 20 18 20 19 19 20 20 20 21 19 20 21 20 22 24 22 21 20 18
40 50 44 45 47 21 20 29 33 25 24 26 29 25 22 22 24 26 30 32 25 26 28 28 27 29 29 28 26 27 24 24 24 23 23 24 25 23 28 24 27 24 24 25 35 33 28 24 18
39 45 49 39 40 43 44 35 27 26 21 18 22 22 22 22 23 24 26 31 33 26 29 32 29 28 30 30 29 28 27 28 27 28 29 29 32 31 32 31 31 32 36 41 39 37 35 25 20

GFSSGP_700_spd_024.txt.gz
Wind_Speed
4 3 9 15 7 1 12 18 14 18 18 13 7 10 14 21 11 20 26 28 27 28 27 30 30 28 27 27 24 22 20 19 18 17 15 13 11 10 11 11 11 10 10 12 12 12 12 11 11
1 3 14 16 13 12 15 17 21 19 16 10 10 26 19 16 10 33 30 29 29 29 27 27 26 26 25 24 22 20 19 19 18 16 15 13 10 10 10 9 9 9 10 10 11 12 11 11 10
3 6 6 6 14 6 14 18 17 14 12 11 10 15 15 30 25 31 30 30 28 27 25 24 24 24 23 21 20 19 19 19 17 16 14 12 11 10 8 8 9 9 10 10 10 11 10 10 9
2 11 12 11 17 14 17 12 14 12 9 15 17 24 22 21 24 27 29 27 26 25 24 23 22 22 21 20 19 19 19 18 17 15 14 12 10 8 8 8 9 10 10 11 10 10 11 11 11
3 7 9 7 14 13 13 13 10 15 16 19 25 25 16 8 24 24 25 23 22 22 21 21 22 21 20 19 19 19 19 18 16 15 13 11 10 8 8 9 10 11 11 11 10 10 11 11 11
11 12 20 3 6 8 10 7 14 16 15 22 19 21 23 17 20 22 21 20 20 19 19 20 20 20 20 19 19 19 18 16 15 13 10 8 8 8 8 9 10 11 10 11 10 10 10 11 10
15 12 13 4 7 8 7 7 8 12 14 15 18 18 21 19 11 17 20 16 16 18 18 19 20 20 20 20 19 17 16 14 12 10 8 7 7 8 9 9 9 10 10 10 8 8 8 9 9
21 14 24 4 13 9 9 8 7 8 19 15 17 18 22 18 8 10 14 18 12 18 19 19 20 20 19 18 17 14 12 11 9 8 7 5 4 5 6 8 8 9 9 9 9 7 6 7 5
14 9 13 8 12 13 11 10 12 14 13 14 10 12 20 22 19 12 10 9 16 16 17 17 18 18 17 16 14 12 10 8 6 5 5 3 2 4 7 4 6 6 7 6 6 6 5 6 6
14 2 4 6 3 7 12 10 10 10 14 13 10 21 23 24 23 21 20 18 15 17 17 17 16 15 15 14 12 10 9 7 5 4 3 1 6 4 5 1 3 5 5 7 5 7 7 8 9
13 4 11 2 12 12 11 12 7 14 12 13 25 24 23 24 23 21 18 13 17 17 18 16 16 15 15 14 12 9 7 6 5 4 3 2 2 3 5 5 4 7 8 10 11 8 8 10 13
21 7 4 5 7 9 8 13 9 10 12 17 18 21 20 25 23 21 17 11 16 14 11 6 14 14 11 8 9 9 9 6 7 6 4 4 5 5 5 4 7 9 11 10 8 10 8 12 11
17 18 2 5 4 9 10 12 13 9 17 16 18 22 20 23 23 22 20 17 14 19 19 19 11 11 11 10 9 8 6 10 6 6 6 7 7 4 8 7 7 8 10 9 6 9 7 12 16
14 13 13 7 10 9 14 14 12 14 13 16 19 23 22 23 23 22 22 20 15 14 18 17 11 11 10 9 6 8 9 11 7 7 12 7 6 7 7 6 8 10 11 8 10 10 12 13 16
18 19 13 14 11 11 14 16 11 18 17 18 19 22 22 23 23 23 23 23 18 13 13 12 11 11 11 10 8 9 8 9 11 9 9 7 5 9 8 10 10 11 12 9 9 10 12 13 14
22 19 19 21 14 15 18 16 11 19 17 19 19 21 23 23 23 22 21 21 15 14 14 13 13 12 12 11 11 10 12 11 9 10 12 16 8 10 10 10 13 13 11 12 14 14 14 16 18
25 27 22 14 16 18 17 13 12 15 17 20 20 21 23 23 24 23 20 19 17 17 16 15 15 14 11 13 12 12 13 12 12 14 10 14 11 10 10 10 14 12 14 15 14 16 16 20 17
28 27 25 24 22 22 18 15 21 22 18 21 20 22 23 24 25 25 22 20 20 18 17 16 16 16 12 12 14 14 14 11 10 15 15 13 17 12 11 10 12 12 14 14 14 14 19 17 17
26 24 26 16 16 21 20 18 15 29 24 21 22 23 23 25 24 26 23 24 23 22 19 17 17 17 16 13 13 15 12 13 14 16 16 11 14 12 12 11 14 12 13 13 13 14 16 15 14
31 31 31 22 22 25 21 23 11 27 24 22 23 23 25 25 26 27 28 26 26 23 20 18 17 16 17 16 15 14 17 18 16 13 14 17 15 10 10 10 12 10 10 9 11 11 12 13 7
34 34 30 21 21 23 23 23 25 24 22 22 23 24 24 27 28 30 30 30 29 27 23 19 17 17 16 18 16 18 16 13 13 16 12 9 8 9 8 5 5 2 4 6 7 8 9 9 8
38 33 31 26 26 22 25 21 30 26 28 26 24 25 26 26 28 29 32 32 32 30 26 23 20 19 17 19 18 17 17 15 14 13 8 3 2 2 3 3 1 1 4 6 8 10 10 9 9
40 31 32 29 31 22 28 17 28 32 35 30 25 26 26 28 27 30 32 33 26 30 29 26 22 21 19 18 18 16 15 13 11 9 5 5 6 4 2 2 1 1 2 6 9 10 12 11 10
34 33 32 32 34 23 32 25 40 41 32 27 30 27 28 26 29 28 31 32 31 26 26 24 22 22 21 19 19 18 15 13 12 10 10 9 7 7 8 5 3 2 4 7 9 11 12 13 12
37 38 28 24 24 18 35 38 26 27 29 25 34 28 31 30 30 31 31 34 31 26 23 23 20 21 22 21 21 20 16 15 12 9 10 10 10 11 9 7 4 6 10 10 12 14 15 16 14
41 41 31 20 17 22 38 35 29 32 28 27 32 31 37 32 29 31 33 30 26 25 22 22 17 18 23 24 23 21 19 16 12 12 11 13 12 11 11 8 9 10 10 12 14 17 22 25 20
39 45 43 41 36 28 34 37 34 25 33 21 26 22 24 35 26 29 34 29 27 25 22 16 16 16 24 26 24 22 19 13 12 14 15 14 15 16 9 14 14 15 14 16 15 23 28 37 29
43 39 41 45 26 25 31 35 25 35 40 28 24 20 20 24 27 28 30 27 26 27 22 20 20 16 24 26 26 23 20 14 15 17 17 18 19 22 16 15 19 19 21 21 20 21 26 30 30
39 43 43 40 43 17 17 27 33 33 34 37 32 30 32 25 22 27 25 26 26 29 26 24 24 22 25 28 28 26 25 22 19 19 20 21 24 21 28 23 21 25 26 26 27 30 34 37 32
41 43 47 38 33 41 38 30 28 28 29 31 28 28 30 28 28 28 29 28 30 27 28 24 28 27 25 28 30 27 26 27 25 24 24 23 24 26 28 30 29 31 33 32 32 33 37 38 39

GFSSGP_700_spd_030.txt.gz
Wind_Speed
9 4 13 8 3 6 10 10 13 13 13 12 10 15 14 13 13 13 30 28 36 34 34 31 32 30 28 27 25 26 25 23 19 16 14 14 14 14 13 13 13 13 13 13 13 13 12 13 12
7 9 6 3 7 8 12 15 12 10 9 6 6 15 9 15 6 34 33 33 34 30 31 32 30 28 27 25 24 24 23 20 17 15 13 14 14 13 14 13 13 13 13 13 14 14 13 13 13
6 18 10 6 12 13 16 15 12 10 9 6 4 17 11 19 29 32 30 32 30 29 31 30 28 26 25 24 23 22 20 17 15 14 14 13 13 14 13 12 12 14 14 14 15 15 15 14 13
6 12 12 7 8 15 20 16 11 12 11 2 10 17 23 26 23 29 29 30 31 30 29 27 25 24 23 22 22 20 18 16 15 14 13 13 13 12 10 11 12 13 13 13 13 13 14 14 14
1 8 4 6 8 11 17 14 11 12 10 14 18 28 26 23 22 26 28 29 27 28 27 24 23 22 21 21 21 19 18 16 14 13 12 12 11 10 11 11 12 12 13 13 12 12 13 13 12
3 5 3 8 5 13 15 10 10 7 14 16 12 26 26 23 23 25 25 26 25 23 24 23 22 21 20 20 19 18 17 16 14 12 11 10 9 10 11 11 11 11 12 12 11 9 10 12 12
16 4 4 7 8 27 17 10 6 6 11 11 14 23 27 23 22 22 24 23 23 22 22 22 21 21 20 20 18 18 17 15 13 11 10 9 10 10 9 10 10 12 12 12 11 9 9 11 7
3 15 11 6 20 26 17 15 2 1 14 15 12 9 21 25 22 21 22 22 22 22 21 20 20 20 20 19 18 17 15 13 11 9 8 8 7 8 9 9 10 10 10 10 10 8 8 8 6
5 13 7 13 21 21 21 17 13 5 2 12 7 5 16 25 23 21 22 24 24 23 22 20 20 20 19 19 17 16 13 11 9 8 6 6 5 6 6 7 7 8 8 6 6 6 6 7 5
3 10 2 3 6 25 24 18 10 12 3 5 9 13 21 21 21 21 22 22 23 22 23 21 20 20 19 18 16 14 12 9 8 8 6 3 5 4 3 4 4 5 6 3 6 6 4 6 5
8 7 5 5 9 22 20 13 8 9 7 2 1 3 16 18 17 20 23 15 16 19 20 21 20 19 18 16 15 13 12 10 8 6 7 5 4 2 3 3 2 4 5 1 2 5 1 4 2
17 11 4 7 18 16 20 15 14 9 5 5 0 1 2 16 18 23 20 20 20 20 19 19 20 19 18 17 15 14 12 10 8 6 4 4 2 1 2 2 0 4 3 3 2 2 2 3 6
19 15 10 8 14 14 24 17 6 12 10 12 8 3 3 9 14 17 14 16 19 19 19 20 20 19 17 17 16 14 12 9 8 9 8 7 4 1 0 2 2 2 4 3 2 3 5 7 8
15 17 16 11 12 16 22 20 17 18 15 14 8 2 6 11 12 17 17 15 16 19 21 19 19 18 14 15 14 10 9 10 13 11 10 8 3 1 2 3 5 5 6 6 4 6 7 8 8
20 22 22 23 19 14 21 23 21 13 20 15 10 6 9 11 13 14 16 15 15 16 15 18 17 15 14 13 10 8 6 6 5 7 6 5 4 4 3 5 7 7 5 4 2 5 7 8 10
23 22 24 24 23 20 34 29 20 18 21 20 14 12 13 17 15 14 14 14 16 16 15 19 15 14 12 9 8 8 5 6 4 3 3 4 5 5 5 7 7 8 6 4 4 6 6 8 11
27 25 21 24 21 22 43 27 24 24 23 23 18 11 13 22 21 17 17 19 19 16 15 16 15 12 11 9 10 10 9 8 7 7 7 6 7 8 8 8 8 8 8 7 7 6 8 8 9
32 24 24 23 14 22 42 27 29 30 25 22 19 16 12 21 20 17 18 21 20 18 16 14 13 13 11 10 11 13 12 9 9 9 11 6 6 6 8 6 8 8 8 8 6 8 12 10 10
30 26 25 24 13 24 33 25 32 32 30 24 24 24 16 17 17 19 19 20 22 20 18 16 15 12 13 11 11 11 10 9 10 11 10 8 9 10 9 8 8 6 5 6 9 10 12 12 13
33 31 33 28 17 22 32 26 32 34 31 26 25 25 22 13 22 21 22 22 22 20 19 18 17 15 14 13 13 13 12 14 14 16 14 10 11 10 8 6 3 5 6 8 11 14 16 16 16
35 38 37 31 19 14 37 32 37 37 34 31 30 26 24 24 14 23 25 24 22 23 20 18 17 16 15 14 15 16 16 14 14 13 12 12 10 6 4 2 6 7 7 9 12 14 18 21 23
36 44 39 31 26 22 18 8 36 38 41 40 36 35 32 32 23 19 15 28 28 27 23 22 21 20 19 18 17 16 15 13 11 9 9 7 6 5 6 9 7 8 9 10 11 14 16 19 24
43 35 34 34 32 30 24 24 31 33 44 46 42 41 30 35 30 21 15 12 14 21 25 24 24 24 23 22 18 16 16 13 12 10 10 10 10 11 10 9 8 9 8 8 10 10 12 15 23
34 32 32 32 33 22 36 36 29 35 36 41 42 43 30 32 33 27 16 16 14 14 17 18 19 27 26 25 21 16 14 14 12 12 12 11 12 11 13 12 9 6 7 5 4 4 6 10 17
31 34 18 15 16 11 33 37 36 25 31 30 42 41 33 30 29 32 26 24 22 19 18 17 18 19 27 27 24 17 15 15 13 13 13 13 12 13 13 11 9 6 4 3 1 2 6 10 16
40 40 24 10 4 5 30 20 46 38 30 33 38 37 34 30 32 27 25 21 23 22 17 15 16 17 19 27 25 19 18 17 16 15 15 14 16 17 14 12 9 6 5 4 4 6 10 14 18
41 43 39 38 30 13 16 27 36 28 37 33 39 40 43 35 35 27 23 25 23 23 21 17 15 15 17 19 23 22 21 20 17 16 17 18 19 17 15 13 9 6 7 8 10 9 13 17 20
36 36 31 32 15 17 11 23 31 35 32 34 40 42 45 41 36 37 28 29 30 24 22 21 18 18 15 15 20 21 23 20 19 19 20 21 20 17 14 12 10 11 12 12 14 15 16 19 21
47 43 34 36 35 12 7 32 41 35 31 26 36 47 42 52 44 41 39 29 34 34 25 25 23 22 22 21 20 22 25 24 22 20 22 21 20 17 13 12 14 15 16 17 17 18 20 21 24
46 44 41 32 21 27 38 51 20 28 31 36 32 36 45 50 42 35 38 33 35 41 31 25 28 25 25 23 22 23 28 28 26 22 22 21 18 16 16 16 16 16 18 18 20 21 24 25 26

GFSSGP_700_spd_033.txt.gz
Wind_Speed
7 8 8 2 2 4 4 6 9 12 10 5 8 14 14 15 16 7 24 25 31 33 33 31 32 30 29 29 28 26 23 20 18 16 14 15 14 12 12 12 12 13 14 13 12 12 13 13 13
13 11 5 3 1 4 7 9 6 6 1 8 11 7 8 13 6 18 26 31 33 30 31 31 29 29 28 26 25 23 20 18 16 14 14 14 13 12 13 13 12 13 13 13 13 12 14 14 13
2 8 7 1 2 7 6 9 7 3 2 5 11 12 7 8 23 28 32 33 32 29 30 29 27 27 25 24 23 21 19 17 15 13 14 13 13 12 13 13 13 13 13 13 13 14 14 13 13
10 5 5 3 1 6 10 8 4 4 5 3 6 10 16 25 25 30 34 31 30 31 30 27 26 25 23 23 22 20 18 16 14 13 12 12 12 11 12 12 12 11 11 11 12 12 13 13 13
7 13 4 1 3 5 9 8 6 7 2 8 13 18 22 24 24 28 29 28 30 29 28 27 25 24 23 23 21 19 17 15 14 12 11 10 11 11 11 11 11 10 10 10 11 11 11 12 13
8 13 9 7 8 7 13 10 8 8 7 14 13 21 22 22 22 26 28 29 27 26 25 24 24 23 22 22 20 18 16 15 13 11 10 10 10 10 11 10 10 9 8 9 10 9 9 11 12
8 2 5 5 10 13 14 12 5 9 7 10 11 18 22 25 24 24 27 26 26 25 23 22 22 22 22 21 19 18 16 14 12 10 9 10 9 9 10 9 9 10 9 8 8 8 7 9 10
9 10 6 8 16 19 15 11 9 7 12 11 13 6 14 24 24 24 24 25 24 23 22 20 20 21 21 20 18 17 15 13 11 9 9 9 8 8 7 7 7 7 7 6 7 6 6 7 7
9 10 6 5 20 18 17 15 14 5 2 9 8 6 12 21 24 24 26 26 25 24 22 21 20 20 20 19 18 16 14 12 10 8 7 7 7 6 5 5 3 4 5 5 4 5 5 7 5
11 10 3 3 10 16 16 16 3 7 6 4 9 10 17 20 22 21 22 23 24 24 24 22 20 19 19 18 17 15 13 10 9 8 7 6 6 4 4 3 3 3 4 4 5 2 2 4 4
12 8 1 8 12 17 17 21 11 5 2 5 5 1 13 20 20 18 17 17 17 21 22 21 20 19 18 17 16 14 12 10 9 7 6 5 4 3 4 3 1 2 3 1 1 3 7 7 4
14 12 4 2 9 14 15 18 18 7 3 6 5 3 3 18 20 20 19 20 21 20 19 20 20 19 18 18 16 14 12 10 9 8 7 5 4 3 3 2 1 1 2 1 2 3 5 8 9
19 15 10 11 11 15 16 19 13 7 9 4 2 2 2 10 20 18 18 19 19 20 20 19 19 19 18 17 15 14 13 12 11 9 8 6 4 2 3 2 1 3 1 2 3 5 5 6 9
24 20 17 5 10 11 20 18 21 15 14 8 4 2 5 10 21 25 24 20 19 20 20 20 19 19 18 16 15 15 14 14 11 9 8 8 6 4 2 1 2 3 5 6 3 3 5 6 7
23 25 21 18 10 16 21 29 28 17 19 15 6 3 6 10 20 24 23 21 20 18 19 19 19 20 17 15 15 14 12 11 9 9 6 5 6 3 1 3 5 6 6 7 6 6 6 6 8
27 27 26 18 15 18 16 33 33 25 24 21 14 8 7 12 15 20 22 21 19 19 18 18 19 18 16 14 13 13 10 8 7 7 7 6 6 4 4 4 7 8 8 7 6 7 8 9 9
27 27 29 20 18 17 23 30 37 31 26 23 18 14 7 14 17 20 22 22 20 18 17 18 20 18 15 14 14 12 11 8 6 7 6 7 9 7 7 5 6 7 7 6 6 7 8 8 9
29 26 31 29 21 10 28 32 36 34 28 23 17 19 9 14 15 18 23 23 21 19 16 16 19 18 16 16 16 13 10 10 8 6 6 7 10 8 7 6 6 4 6 6 4 7 9 10 9
31 22 31 31 15 7 18 38 37 39 29 25 25 23 16 5 13 17 21 23 23 21 20 19 20 20 18 16 14 11 7 7 7 8 9 10 12 10 8 7 7 3 1 6 9 12 17 18 15
31 30 30 35 27 16 13 36 38 39 27 20 24 24 19 11 14 19 21 24 24 22 21 21 20 19 18 17 12 11 10 11 12 13 12 12 13 11 9 8 3 6 9 11 14 17 19 20 18
36 35 35 36 19 16 17 22 38 39 34 28 29 24 19 17 11 11 24 24 22 22 21 20 18 18 18 17 15 14 14 14 14 13 12 13 15 12 8 7 10 11 13 14 14 16 18 21 22
39 41 34 34 22 15 14 9 36 40 42 34 34 30 28 28 23 18 13 24 27 27 24 23 22 21 19 19 18 16 15 15 12 12 12 15 13 8 9 12 13 13 14 12 12 12 14 21 25
42 39 36 29 20 25 29 16 26 42 45 37 31 33 30 31 29 21 20 14 11 23 25 26 24 23 22 22 21 19 18 17 17 16 13 11 11 12 14 14 15 15 13 11 11 8 9 14 21
38 29 29 28 25 19 38 21 29 43 42 32 31 33 33 32 32 28 20 15 16 13 18 27 28 25 25 24 23 21 19 18 19 16 13 10 11 14 15 16 17 14 11 9 7 5 4 8 16
29 30 10 7 9 11 34 27 34 22 34 35 38 32 33 34 34 29 25 23 18 21 17 20 25 27 26 28 27 24 21 20 19 18 14 12 15 17 19 18 16 13 11 8 7 6 2 6 11
42 38 15 7 3 8 24 22 42 42 32 25 37 34 33 34 33 27 31 24 21 19 18 17 21 22 22 20 25 25 23 22 20 19 15 14 17 19 20 19 18 15 12 9 7 7 6 7 11
34 43 41 28 12 4 17 41 52 44 28 31 36 37 33 36 36 30 27 31 22 23 21 17 18 19 19 19 18 26 25 24 22 20 18 18 21 23 23 21 19 17 13 10 9 9 10 11 12
41 33 27 30 11 12 8 26 23 36 46 33 29 37 40 35 37 33 25 26 28 25 22 20 18 18 18 18 19 21 24 25 24 22 20 22 26 26 24 21 18 16 14 12 11 11 13 14 16
47 45 35 33 31 7 3 22 36 29 27 29 33 24 27 31 38 37 37 28 28 26 26 23 23 21 22 22 20 20 22 27 27 24 21 26 28 27 23 22 19 17 15 15 14 15 15 14 18
44 47 45 25 26 38 33 23 8 25 47 31 28 26 28 30 40 43 37 32 30 27 32 29 24 24 25 25 24 24 21 29 29 26 24 28 30 28 26 23 21 19 17 16 15 16 17 17 18

GFSSGP_700_spd_036.txt.gz
Wind_Speed
10 10 7 6 3 3 4 5 5 7 9 5 4 11 13 6 11 5 19 24 27 31 34 34 31 30 30 28 28 25 22 19 17 16 15 14 13 12 12 12 14 13 12 14 13 12 11 11 12
15 13 7 5 3 3 5 6 5 6 2 6 11 9 10 14 6 12 25 27 33 34 34 33 30 30 29 28 26 22 20 17 16 15 14 13 12 11 11 12 14 13 13 13 13 12 12 12 11
17 12 7 4 3 2 3 2 4 7 6 7 11 8 7 13 8 22 26 32 32 31 33 30 29 30 29 27 24 20 18 16 15 15 13 12 11 11 11 12 12 13 13 13 14 14 14 14 12
12 2 6 3 5 3 0 6 5 5 5 7 7 6 7 14 24 25 32 30 31 31 30 28 28 28 26 24 21 18 17 15 15 13 12 11 10 11 11 10 10 11 12 12 13 14 14 14 12
10 4 5 2 3 1 3 4 6 4 2 7 12 13 21 24 26 30 31 28 29 29 28 27 26 25 23 21 19 17 16 15 13 12 11 10 11 11 10 9 9 10 11 10 11 12 12 13 12
14 3 2 4 6 7 5 3 2 2 5 13 11 20 22 24 28 28 26 28 28 25 25 25 25 23 22 20 18 17 16 14 13 11 10 11 11 11 10 9 8 9 9 8 8 10 10 10 11
5 7 7 6 4 6 7 7 5 6 7 6 15 17 23 27 28 23 26 28 27 24 21 22 24 23 22 20 19 17 16 14 11 9 11 10 9 9 10 9 8 8 7 6 6 8 8 7 8
5 7 5 4 4 6 8 8 7 7 11 11 13 9 14 26 28 27 28 27 25 23 22 22 22 22 22 21 19 17 15 13 11 10 10 9 8 8 9 8 6 6 5 5 5 7 6 6 6
4 4 3 6 6 8 11 10 9 7 6 8 15 7 9 20 26 29 28 27 26 23 22 22 21 21 22 20 19 17 15 13 10 9 8 7 7 5 5 6 5 5 5 4 3 6 6 7 6
7 8 3 3 5 7 7 8 5 7 5 6 8 10 16 17 20 23 24 24 24 25 24 23 22 21 21 19 17 15 14 11 10 8 8 7 5 3 3 3 3 3 4 3 4 4 6 8 7
11 13 7 3 2 11 7 8 6 3 5 8 6 4 11 18 19 19 20 20 20 23 24 23 23 21 19 18 16 14 13 11 8 7 5 5 2 1 1 0 2 3 4 4 3 6 7 7 9
15 12 10 2 10 17 18 12 6 10 3 5 7 5 4 14 16 18 19 20 22 22 22 22 21 20 19 17 15 14 12 10 8 6 5 3 3 2 2 1 1 3 3 3 3 6 6 7 8
17 15 10 3 7 8 13 17 8 8 6 4 9 3 5 9 15 18 18 20 21 21 21 20 20 19 18 17 16 14 12 10 10 8 6 4 3 2 3 2 2 2 3 5 5 6 10 10 10
17 19 15 12 7 9 12 18 18 12 16 10 2 4 5 8 15 20 23 23 22 22 21 20 19 19 18 17 14 12 12 12 11 9 8 6 4 4 2 1 1 4 6 6 5 6 6 9 11
23 23 22 17 10 9 7 22 29 18 18 16 8 5 8 10 13 21 21 21 22 20 21 20 19 18 17 16 15 14 12 13 12 10 7 5 8 5 2 2 1 4 6 6 6 6 9 10 11
29 27 25 19 16 11 15 24 19 22 24 22 15 9 9 12 9 17 19 21 21 21 21 20 20 19 18 17 15 14 12 11 10 7 9 7 5 5 4 4 2 4 6 7 6 6 7 9 9
22 30 30 22 18 13 18 28 24 25 26 28 21 16 9 13 16 19 21 21 21 20 20 19 19 18 17 16 15 14 14 10 8 9 9 9 8 8 6 4 3 6 5 6 5 5 7 6 8
31 27 30 26 22 18 17 23 27 28 27 28 21 21 12 13 15 18 23 24 22 22 20 19 19 20 18 18 16 15 13 13 12 10 10 9 9 9 7 5 3 4 4 3 5 10 10 8 6
26 34 28 29 23 15 18 16 24 30 26 30 26 26 21 3 15 19 24 25 25 25 23 21 20 19 20 19 16 13 10 11 11 10 11 11 11 12 10 6 3 2 4 9 14 13 11 10 8
39 28 30 33 28 23 22 20 15 28 32 30 29 25 19 12 19 23 24 28 28 25 23 22 21 20 18 17 15 14 13 13 13 14 14 12 12 11 12 7 3 6 12 14 14 14 15 16 10
40 42 38 31 15 19 22 27 23 23 30 33 35 28 23 21 10 21 27 28 27 27 25 22 20 19 18 17 18 16 17 14 12 10 9 9 11 12 11 8 8 13 16 14 14 15 18 21 17
42 43 33 29 21 14 18 8 22 19 30 37 39 33 25 28 24 14 19 27 27 27 25 25 24 23 22 21 20 18 16 14 10 9 10 13 13 12 12 12 16 18 16 15 12 11 17 19 20
43 29 36 31 23 19 25 12 23 16 26 37 37 34 24 24 25 23 16 14 17 26 26 26 25 25 24 22 19 18 17 14 14 14 15 13 11 12 14 18 20 19 17 15 13 9 9 14 18
41 12 24 31 28 19 34 24 24 32 26 28 37 35 20 22 23 22 19 16 16 17 28 29 30 29 27 24 22 21 18 16 17 17 16 14 12 14 18 21 23 21 18 15 13 7 4 8 14
41 31 6 5 7 12 25 26 38 19 33 22 27 30 20 19 24 23 22 23 24 24 19 27 32 32 31 28 26 24 20 19 18 19 17 15 14 18 20 23 23 21 18 15 11 8 4 3 8
36 37 13 8 4 9 20 21 26 36 28 22 23 29 30 31 30 27 22 23 26 25 25 23 21 29 34 32 29 26 24 22 21 20 18 17 17 20 23 25 24 22 19 15 12 10 7 4 5
34 42 44 8 4 4 15 38 38 27 34 36 28 25 25 24 29 28 24 27 29 27 24 22 22 19 21 28 26 23 23 25 24 21 19 18 20 23 27 28 26 23 19 16 15 13 10 7 6
34 38 28 33 6 6 6 14 21 38 49 40 37 35 28 26 25 24 25 29 31 33 26 22 21 21 18 18 20 20 18 21 25 24 23 21 22 27 31 31 28 24 21 19 17 15 12 11 12
43 35 27 26 21 7 0 10 23 25 29 39 47 37 29 23 23 27 26 29 31 31 32 26 25 23 24 23 21 22 21 20 25 27 26 24 25 29 32 32 30 26 23 21 19 16 14 12 14
50 44 42 21 17 38 19 16 4 17 32 37 32 39 30 25 26 21 21 27 35 32 31 32 28 27 25 23 22 23 22 23 24 27 28 26 27 33 33 32 30 27 24 22 20 18 16 15 15